Location: Castle Hill Houses
(40.8186°N, 73.8497°W)
Time: 09:30:48
(UTC+00:00)

Cosmos 1455 - Pass Details

Date: 26 January 2020
Orbit: 498 x 524 km, 82.5° (Epoch: 27 February)

Event Time Altitude Azimuth Distance (km) Brightness Sun altitude
Rises 11:29:26 0° 171° (S) 2,641 6.2 -8.2°
Reaches altitude 10° 11:31:38 10° 164° (SSE) 1,758 5.4 -7.8°
Maximum altitude 11:35:16 42° 93° (E) 763 3.7 -7.2°
Drops below altitude 10° 11:38:57 10° 22° (NNE) 1,768 5.0 -6.5°
Sets 11:41:09 0° 15° (NNE) 2,658 5.8 -6.1°
